Content
SEND FEEDBACK

Daily
Averages
Monthly
Summary
United States of America

RAPID CITY, SOUTH DAKOTA


Home > North America > United States > South Dakota
Elevation: 963 meters     Latitude: 44 03N     Longitude: 103 04W

WEATHER
 
SELECT A DAY
Number of Records: 200,374;   Date Range: 1/1/95 - 8/12/14
 
SHARE

PRINT THIS DATA

[ ← Previous Day ]
WEATHER ALMANAC - 17 JANUARY, 2013
[ Next Day → ]
[ °F ]   °C
Weather ElementAverageHighLow
Temperature0.9 °C7.2 °C (1:52 pm)-5.6 °C (5:52 am)
Dewpoint-5.8 °C-1.7 °C (3:52 pm)-8.9 °C (5:52 am)
Humidity61.8 %78 % (5:52 am)49 % (11:52 am)
Barometer1025.7 hPa1030.8 hPa (7:52 am)1018.3 hPa (11:52 pm)
Wind Speed5.8 km/h16.7 km/h (11:52 am)
Weather ElementAverage
Visibility16.1 km
Wind DirectionSSE (141.7 °)

Weather ElementTotal
Precipitation---
Heating Degree Days17.6 (Base 18.3)
Averaged from 23 records on 17 January, 2013
WEATHER CONDITIONS BREAKOUT
WIND DIRECTION BREAKOUT
WEATHER BY HOUR - 17 JANUARY, 2013
[ °F ]   °C
Local TimeTemperatureDewpointHumidityBarometerVisibilityWind DirectionWind SpeedGust SpeedPrecipitationEventsConditions
1:52 AM-1.1 °C-7.2 °C64 %1027.8 hPa16.1 kmWNW (300°)9.3 km/hClear
2:52 AM-1.1 °C-7.2 °C64 %1028.4 hPa16.1 kmWNW (290°)11.1 km/hClear
3:52 AM-3 °C-7 °C74 %1025.7 hPa16.1 kmNW (320°)5.6 km/hClear
4:52 AM-2.2 °C-7.8 °C66 %1029.1 hPa16.1 kmWest (280°)5.6 km/hClear
5:52 AM-5.6 °C-8.9 °C78 %1029.8 hPa16.1 kmNNW (330°)7.4 km/hClear
6:52 AM-3.9 °C-8.3 °C72 %1030.5 hPa16.1 kmNW (320°)7.4 km/hClear
7:52 AM-2.2 °C-7.8 °C66 %1030.8 hPa16.1 kmCalmClear
8:52 AM2.2 °C-5 °C59 %1030.1 hPa16.1 kmCalmClear
9:52 AM2.2 °C-3.9 °C64 %1029.8 hPa16.1 kmSW (230°)5.6 km/hClear
10:52 AM3.9 °C-3.9 °C57 %1028.4 hPa16.1 kmSE (130°)11.1 km/hClear
11:52 AM5.6 °C-4.4 °C49 %1027.1 hPa16.1 kmSSE (150°)16.7 km/hClear
12:52 PM5.6 °C-2.8 °C55 %1026.1 hPa16.1 kmSE (140°)14.8 km/hClear
1:52 PM7.2 °C-2.8 °C49 %1024.4 hPa16.1 kmSouth (170°)5.6 km/hClear
2:52 PM7.2 °C-2.2 °C52 %1023.7 hPa16.1 kmSE (130°)7.4 km/hClear
3:52 PM5.6 °C-1.7 °C60 %1023.4 hPa16.1 kmESE (110°)9.3 km/hClear
4:52 PM2.8 °C-2.8 °C67 %1023.7 hPa16.1 kmCalmClear
5:52 PM2.8 °C-5 °C57 %1023.7 hPa16.1 kmSW (230°)11.1 km/hClear
6:52 PM0.6 °C-6.1 °C61 %1023.4 hPa16.1 kmCalmClear
7:52 PM-1.1 °C-6.7 °C66 %1023 hPa16.1 kmCalmClear
8:52 PM-0.6 °C-7.8 °C59 %1021.3 hPa16.1 kmCalmClear
9:52 PM-1.1 °C-7.8 °C61 %1020.7 hPa16.1 kmCalmClear
10:52 PM-0.6 °C-8.3 °C57 %1019.6 hPa16.1 kmCalmClear
11:52 PM-1.7 °C-7.8 °C64 %1018.3 hPa16.1 kmSE (130°)5.6 km/hClear
Hourly data recorded from KRAP, located 0 kilometers away from Rapid City, South Dakota







STORIES FROM OUR PARTNERS